NORTHERN QUEENS  -  Freeze Watch Freeze Watch        SOUTHERN QUEENS  -  Freeze Watch Freeze Watch      

Active alerts

Northern Queens
  Details for Northern Queens Freeze Watch
Southern Queens
  Details for Southern Queens Freeze Watch


WXM80 ListenWXM80 Stop

You find our weather info also at:

UK Metoffice

WeatherCloud

Weather Underground

Northeastern Weather Network

AWEKAS

Citizen Weather Observer Program (CWOP)

HAMweather, WeatherForYou, PWS Weather


Weather Underground History page Text

Daily Summary for December 25, 2017 Units:  English    Metric   Both
« Previous Day
Next Day »
Daily Weekly Monthly Yearly Custom
  High: Low: Average:
Temperature: 39.2 °F 29.1 °F 35.6 °F
Dew Point: 38.2 °F 13.2 °F 26.4 °F
Humidity: 97 % 46 % 71 %
Wind Speed: 17.8 mph 1.0 mph 9 mph
Wind Gust: 36.8 mph - -
Wind:- - SSW
Pressure: 30.20 in 29.57 in -
Precipitation: 0.11 in    
Historical Graphs
 
 
Tabular Data for December 25, 2017
Time Temperature Dew Point Pressure Wind Wind Speed Wind Gust Humidity Rainfall Rate (Hourly)
00:02 37.8 °F 36.2 °F 29.84 in East 11.6 mph 12.7 mph 94 % 0.00 in
00:06 37.9 °F 36.3 °F 29.84 in East 11.6 mph 15.0 mph 94 % 0.00 in
00:07 37.9 °F 36.3 °F 29.84 in East 10.7 mph 16.1 mph 94 % 0.00 in
00:12 37.8 °F 36.2 °F 29.84 in East 10.1 mph 15.0 mph 94 % 0.00 in
00:18 37.8 °F 36.2 °F 29.83 in ENE 13.7 mph 18.4 mph 94 % 0.00 in
00:20 37.7 °F 36.1 °F 29.83 in NE 9.3 mph 15.0 mph 94 % 0.00 in
00:25 37.7 °F 36.4 °F 29.82 in ENE 10.8 mph 13.8 mph 95 % 0.00 in
00:28 37.7 °F 36.4 °F 29.82 in ENE 15.1 mph 24.2 mph 95 % 0.00 in
00:33 37.5 °F 35.9 °F 29.81 in ENE 11.5 mph 17.0 mph 94 % 0.00 in
00:35 37.5 °F 35.9 °F 29.81 in ENE 13.3 mph 17.3 mph 94 % 0.00 in
00:36 37.5 °F 36.2 °F 29.81 in ENE 11.0 mph 17.3 mph 95 % 0.00 in
00:41 37.5 °F 36.2 °F 29.80 in East 11.3 mph 14.0 mph 95 % 0.00 in
00:46 37.5 °F 36.2 °F 29.80 in East 11.6 mph 17.3 mph 95 % 0.00 in
00:51 37.5 °F 36.2 °F 29.79 in East 10.3 mph 17.3 mph 95 % 0.00 in
00:57 37.6 °F 36.3 °F 29.79 in ENE 10.8 mph 16.0 mph 95 % 0.00 in
00:59 37.8 °F 36.5 °F 29.79 in NE 12.4 mph 16.1 mph 95 % 0.00 in
01:04 37.8 °F 36.5 °F 29.78 in ENE 12.0 mph 16.1 mph 95 % 0.00 in
01:07 37.8 °F 36.5 °F 29.78 in ENE 11.3 mph 17.3 mph 95 % 0.00 in
01:12 37.9 °F 36.6 °F 29.77 in ENE 9.9 mph 16.1 mph 95 % 0.00 in
01:17 38.1 °F 37.1 °F 29.77 in ENE 10.3 mph 13.8 mph 96 % 0.00 in
01:19 38.2 °F 37.2 °F 29.77 in ENE 10.4 mph 17.3 mph 96 % 0.00 in
01:21 38.2 °F 37.2 °F 29.76 in East 11.9 mph 16.1 mph 96 % 0.00 in
01:26 38.5 °F 37.5 °F 29.76 in ENE 10.8 mph 17.3 mph 96 % 0.00 in
01:29 38.6 °F 37.6 °F 29.75 in ENE 9.7 mph 16.1 mph 96 % 0.00 in
01:30 38.6 °F 37.6 °F 29.75 in East 11.9 mph 14.0 mph 96 % 0.00 in
01:35 38.7 °F 37.7 °F 29.75 in ENE 12.0 mph 17.0 mph 96 % 0.00 in
01:38 38.9 °F 37.9 °F 29.74 in ENE 15.2 mph 23.0 mph 96 % 0.00 in
01:39 38.8 °F 37.8 °F 29.74 in East 10.6 mph 23.0 mph 96 % 0.00 in
01:44 39.0 °F 38.0 °F 29.74 in East 9.8 mph 13.0 mph 96 % 0.00 in
01:45 39.1 °F 38.1 °F 29.74 in ENE 12.4 mph 16.1 mph 96 % 0.00 in
01:50 39.2 °F 38.2 °F 29.74 in East 10.6 mph 12.7 mph 96 % 0.00 in
01:52 39.2 °F 38.2 °F 29.74 in ENE 10.4 mph 13.8 mph 96 % 0.00 in
01:56 39.2 °F 38.2 °F 29.73 in East 9.0 mph 9.2 mph 96 % 0.00 in
02:01 39.2 °F 38.2 °F 29.73 in East 9.9 mph 11.5 mph 96 % 0.00 in
02:06 39.2 °F 38.2 °F 29.73 in East 9.3 mph 12.7 mph 96 % 0.00 in
02:07 39.2 °F 38.2 °F 29.73 in East 10.3 mph 14.0 mph 96 % 0.00 in
02:12 39.2 °F 38.2 °F 29.73 in ENE 9.9 mph 11.5 mph 96 % 0.00 in
02:17 39.0 °F 38.0 °F 29.72 in ENE 10.3 mph 15.0 mph 96 % 0.00 in
02:19 39.0 °F 38.0 °F 29.72 in ENE 11.6 mph 16.0 mph 96 % 0.00 in
02:20 38.9 °F 37.9 °F 29.72 in East 10.7 mph 16.1 mph 96 % 0.00 in
02:24 38.8 °F 37.8 °F 29.71 in ENE 10.3 mph 17.3 mph 96 % 0.00 in
02:29 38.7 °F 37.7 °F 29.70 in East 11.6 mph 13.0 mph 96 % 0.00 in
02:34 38.6 °F 37.6 °F 29.70 in ENE 11.3 mph 16.1 mph 96 % 0.00 in
02:36 38.6 °F 37.6 °F 29.69 in East 13.4 mph 17.3 mph 96 % 0.00 in
02:41 38.6 °F 37.6 °F 29.68 in East 10.5 mph 13.8 mph 96 % 0.00 in
02:43 38.6 °F 37.6 °F 29.68 in East 10.5 mph 17.3 mph 96 % 0.00 in
02:48 38.7 °F 37.7 °F 29.70 in ENE 7.0 mph 11.5 mph 96 % 0.00 in
02:49 38.7 °F 37.7 °F 29.70 in East 5.8 mph 11.5 mph 96 % 0.00 in
02:54 38.6 °F 37.6 °F 29.70 in ENE 1.4 mph 4.0 mph 96 % 0.00 in
02:59 38.6 °F 37.6 °F 29.69 in ENE 7.3 mph 10.4 mph 96 % 0.00 in
03:00 38.5 °F 37.5 °F 29.69 in East 6.7 mph 10.4 mph 96 % 0.00 in
03:05 38.5 °F 37.5 °F 29.68 in East 10.8 mph 15.0 mph 96 % 0.00 in
03:06 38.5 °F 37.5 °F 29.68 in ENE 9.9 mph 13.8 mph 96 % 0.00 in
03:11 38.6 °F 37.6 °F 29.68 in East 9.1 mph 15.0 mph 96 % 0.00 in
03:16 38.6 °F 37.6 °F 29.68 in East 8.3 mph 12.7 mph 96 % 0.00 in
03:17 38.6 °F 37.6 °F 29.68 in ENE 10.7 mph 12.7 mph 96 % 0.00 in
03:20 38.6 °F 37.6 °F 29.67 in ENE 10.9 mph 13.8 mph 96 % 0.00 in
03:25 38.6 °F 37.6 °F 29.66 in East 9.0 mph 12.7 mph 96 % 0.00 in
03:30 38.6 °F 37.6 °F 29.66 in East 8.6 mph 10.4 mph 96 % 0.01 in
03:36 38.6 °F 37.6 °F 29.65 in ENE 10.0 mph 14.0 mph 96 % 0.00 in
03:41 38.6 °F 37.6 °F 29.65 in ENE 10.0 mph 14.0 mph 96 % 0.00 in
03:46 38.6 °F 37.6 °F 29.65 in ENE 7.8 mph 12.7 mph 96 % 0.01 in
03:51 38.7 °F 37.7 °F 29.64 in East 10.5 mph 17.0 mph 96 % 0.01 in
03:54 38.6 °F 37.6 °F 29.64 in ENE 11.9 mph 17.3 mph 96 % 0.01 in
03:59 38.6 °F 37.6 °F 29.65 in ENE 5.9 mph 8.1 mph 96 % 0.01 in
04:03 38.5 °F 37.5 °F 29.66 in NE 4.0 mph 8.1 mph 96 % 0.01 in
04:08 38.4 °F 37.4 °F 29.65 in ENE 9.2 mph 12.7 mph 96 % 0.01 in
04:13 38.3 °F 37.3 °F 29.64 in ENE 11.4 mph 15.0 mph 96 % 0.01 in
04:15 38.3 °F 37.3 °F 29.63 in East 11.9 mph 13.8 mph 96 % 0.01 in
04:20 38.1 °F 37.1 °F 29.62 in ENE 11.6 mph 16.1 mph 96 % 0.02 in
04:22 38.1 °F 37.1 °F 29.62 in ENE 11.5 mph 16.1 mph 96 % 0.02 in
04:27 38.1 °F 37.1 °F 29.62 in East 8.5 mph 11.5 mph 96 % 0.01 in
04:28 38.0 °F 37.0 °F 29.62 in East 7.1 mph 11.5 mph 96 % 0.01 in
04:33 38.1 °F 37.1 °F 29.62 in ENE 3.7 mph 9.2 mph 96 % 0.02 in
04:36 38.1 °F 37.1 °F 29.62 in ENE 4.2 mph 8.0 mph 96 % 0.02 in
04:41 38.2 °F 37.2 °F 29.62 in NE 8.2 mph 10.4 mph 96 % 0.02 in
04:42 38.2 °F 37.2 °F 29.62 in NE 10.8 mph 12.7 mph 96 % 0.02 in
04:43 38.2 °F 37.2 °F 29.61 in ENE 10.2 mph 12.7 mph 96 % 0.02 in
04:49 38.2 °F 37.2 °F 29.61 in ENE 8.9 mph 11.5 mph 96 % 0.02 in
04:54 38.2 °F 37.2 °F 29.60 in ENE 9.5 mph 15.0 mph 96 % 0.02 in
04:55 38.2 °F 37.2 °F 29.60 in East 9.3 mph 13.0 mph 96 % 0.02 in
05:00 38.2 °F 37.2 °F 29.60 in ENE 9.6 mph 15.0 mph 96 % 0.02 in
05:05 38.3 °F 37.5 °F 29.59 in ENE 10.1 mph 14.0 mph 97 % 0.02 in
05:10 38.3 °F 37.3 °F 29.59 in East 5.7 mph 11.5 mph 96 % 0.02 in
05:14 38.3 °F 37.5 °F 29.60 in ENE 3.6 mph 8.1 mph 97 % 0.02 in
05:19 38.3 °F 37.5 °F 29.60 in ENE 4.2 mph 8.1 mph 97 % 0.01 in
05:24 38.3 °F 37.3 °F 29.59 in ENE 7.7 mph 11.5 mph 96 % 0.01 in
05:29 38.3 °F 37.3 °F 29.58 in ENE 11.1 mph 12.7 mph 96 % 0.01 in
05:31 38.3 °F 37.3 °F 29.57 in NE 8.8 mph 11.5 mph 96 % 0.00 in
05:32 38.3 °F 37.3 °F 29.57 in ENE 8.9 mph 11.5 mph 96 % 0.00 in
05:37 38.2 °F 37.2 °F 29.57 in ENE 8.9 mph 11.5 mph 96 % 0.00 in
05:40 38.2 °F 37.2 °F 29.57 in ENE 5.5 mph 10.4 mph 96 % 0.00 in
05:45 38.2 °F 37.4 °F 29.57 in NNE 3.7 mph 5.8 mph 97 % 0.00 in
05:46 38.2 °F 37.4 °F 29.57 in North 3.6 mph 5.8 mph 97 % 0.00 in
05:51 38.2 °F 37.4 °F 29.58 in NNE 4.6 mph 6.0 mph 97 % 0.00 in
05:53 38.2 °F 37.4 °F 29.58 in NNE 3.6 mph 6.9 mph 97 % 0.00 in
05:57 38.1 °F 37.1 °F 29.57 in East 6.0 mph 9.2 mph 96 % 0.00 in
05:59 38.0 °F 37.0 °F 29.58 in East 1.6 mph 5.8 mph 96 % 0.00 in
06:04 38.0 °F 37.0 °F 29.63 in WNW 5.4 mph 10.4 mph 96 % 0.00 in
06:09 37.9 °F 36.9 °F 29.62 in WNW 2.3 mph 5.8 mph 96 % 0.02 in
06:13 37.8 °F 36.8 °F 29.63 in West 5.8 mph 12.0 mph 96 % 0.03 in
06:19 37.5 °F 36.5 °F 29.63 in NW 3.0 mph 6.9 mph 96 % 0.04 in
06:24 37.2 °F 36.2 °F 29.63 in West 7.6 mph 11.5 mph 96 % 0.04 in
06:29 36.9 °F 35.9 °F 29.64 in WNW 3.7 mph 6.9 mph 96 % 0.04 in
06:34 36.5 °F 35.5 °F 29.64 in WNW 3.8 mph 8.0 mph 96 % 0.05 in
06:38 36.4 °F 35.4 °F 29.64 in West 5.6 mph 8.1 mph 96 % 0.05 in
06:43 35.9 °F 34.6 °F 29.64 in WNW 5.6 mph 9.2 mph 95 % 0.06 in
06:45 35.8 °F 34.5 °F 29.64 in West 6.1 mph 11.0 mph 95 % 0.06 in
06:47 35.7 °F 34.4 °F 29.64 in NW 2.8 mph 3.5 mph 95 % 0.06 in
06:52 35.4 °F 34.1 °F 29.64 in NW 3.6 mph 11.5 mph 95 % 0.07 in
06:53 35.4 °F 34.1 °F 29.63 in West 4.6 mph 6.9 mph 95 % 0.07 in
06:57 35.3 °F 34.0 °F 29.64 in NNW 2.2 mph 4.0 mph 95 % 0.07 in
07:01 35.2 °F 33.9 °F 29.64 in SW 7.2 mph 10.0 mph 95 % 0.07 in
07:06 35.1 °F 33.8 °F 29.64 in West 5.7 mph 8.1 mph 95 % 0.06 in
07:11 35.1 °F 34.1 °F 29.65 in West 5.8 mph 10.4 mph 96 % 0.05 in
07:12 35.0 °F 34.0 °F 29.65 in West 6.5 mph 10.4 mph 96 % 0.05 in
07:17 35.0 °F 34.0 °F 29.65 in West 3.8 mph 10.4 mph 96 % 0.03 in
07:18 35.0 °F 34.0 °F 29.65 in West 4.6 mph 8.1 mph 96 % 0.03 in
07:19 35.0 °F 34.0 °F 29.65 in SW 5.1 mph 11.5 mph 96 % 0.03 in
07:24 35.1 °F 34.1 °F 29.65 in WNW 4.9 mph 9.2 mph 96 % 0.04 in
07:27 35.1 °F 34.1 °F 29.65 in SSW 4.7 mph 11.5 mph 96 % 0.04 in
07:32 35.1 °F 34.1 °F 29.65 in WNW 5.6 mph 13.8 mph 96 % 0.03 in
07:33 35.1 °F 34.1 °F 29.65 in WNW 4.4 mph 13.8 mph 96 % 0.03 in
07:38 35.2 °F 34.2 °F 29.66 in West 5.5 mph 6.9 mph 96 % 0.03 in
07:43 35.3 °F 34.3 °F 29.65 in WNW 6.3 mph 11.5 mph 96 % 0.02 in
07:46 35.4 °F 34.4 °F 29.66 in West 6.7 mph 13.8 mph 96 % 0.02 in
07:51 35.5 °F 34.5 °F 29.66 in West 5.2 mph 12.0 mph 96 % 0.02 in
07:54 35.5 °F 34.5 °F 29.66 in West 1.0 mph 3.5 mph 96 % 0.01 in
07:59 35.7 °F 34.7 °F 29.66 in SW 3.7 mph 9.2 mph 96 % 0.01 in
08:04 35.7 °F 34.7 °F 29.66 in WNW 7.4 mph 13.8 mph 96 % 0.01 in
08:10 35.8 °F 34.8 °F 29.66 in SW 7.9 mph 14.0 mph 96 % 0.01 in
08:15 35.8 °F 34.8 °F 29.66 in WSW 7.1 mph 10.4 mph 96 % 0.01 in
08:20 35.9 °F 34.9 °F 29.66 in South 6.2 mph 21.0 mph 96 % 0.01 in
08:21 35.9 °F 34.9 °F 29.66 in WSW 7.0 mph 21.0 mph 96 % 0.00 in
08:26 36.0 °F 35.0 °F 29.66 in SW 8.9 mph 18.4 mph 96 % 0.00 in
08:27 35.9 °F 34.9 °F 29.66 in West 11.7 mph 21.9 mph 96 % 0.00 in
08:32 36.0 °F 35.0 °F 29.67 in NW 6.9 mph 14.0 mph 96 % 0.00 in
08:33 36.0 °F 35.0 °F 29.67 in SSW 7.9 mph 16.1 mph 96 % 0.00 in
08:37 36.1 °F 35.1 °F 29.66 in WNW 6.7 mph 21.9 mph 96 % 0.00 in
08:42 36.3 °F 35.3 °F 29.67 in WSW 7.3 mph 18.4 mph 96 % 0.00 in
08:43 36.3 °F 35.3 °F 29.67 in West 8.7 mph 19.6 mph 96 % 0.00 in
08:48 36.4 °F 35.4 °F 29.68 in SSW 8.9 mph 15.0 mph 96 % 0.00 in
08:53 36.6 °F 35.3 °F 29.67 in West 13.0 mph 19.6 mph 95 % 0.00 in
08:56 36.7 °F 35.4 °F 29.68 in SW 13.5 mph 18.4 mph 95 % 0.00 in
08:59 36.8 °F 35.2 °F 29.69 in WSW 10.7 mph 16.1 mph 94 % 0.00 in
09:04 37.0 °F 35.4 °F 29.69 in WSW 10.1 mph 17.3 mph 94 % 0.00 in
09:05 37.0 °F 35.2 °F 29.69 in SW 9.0 mph 17.3 mph 93 % 0.00 in
09:09 37.1 °F 35.3 °F 29.70 in WSW 11.6 mph 23.0 mph 93 % 0.00 in
09:12 37.2 °F 35.1 °F 29.70 in WSW 13.2 mph 23.0 mph 92 % 0.00 in
09:17 37.3 °F 34.9 °F 29.70 in SW 16.7 mph 23.0 mph 91 % 0.00 in
09:22 37.4 °F 34.2 °F 29.71 in West 12.0 mph 27.6 mph 88 % 0.00 in
09:24 37.4 °F 34.2 °F 29.72 in WSW 15.4 mph 24.2 mph 88 % 0.00 in
09:29 37.5 °F 33.4 °F 29.72 in WSW 11.9 mph 19.6 mph 85 % 0.00 in
09:31 37.6 °F 33.2 °F 29.72 in WSW 13.8 mph 24.2 mph 84 % 0.00 in
09:36 37.7 °F 32.7 °F 29.73 in WSW 11.3 mph 25.3 mph 82 % 0.00 in
09:38 37.7 °F 32.7 °F 29.72 in SW 16.0 mph 26.0 mph 82 % 0.00 in
09:39 37.8 °F 32.5 °F 29.72 in SW 10.8 mph 26.5 mph 81 % 0.00 in
09:43 37.8 °F 32.2 °F 29.73 in SW 13.5 mph 28.8 mph 80 % 0.00 in
09:48 38.0 °F 31.7 °F 29.73 in WSW 9.1 mph 19.6 mph 78 % 0.00 in
09:52 38.0 °F 32.1 °F 29.74 in WNW 7.1 mph 13.8 mph 79 % 0.00 in
09:54 38.1 °F 31.5 °F 29.73 in SSW 11.9 mph 28.8 mph 77 % 0.00 in
09:59 38.2 °F 31.0 °F 29.74 in West 17.8 mph 29.9 mph 75 % 0.00 in
10:04 38.3 °F 31.1 °F 29.74 in West 8.1 mph 17.0 mph 75 % 0.00 in
10:05 38.3 °F 31.1 °F 29.75 in NW 9.9 mph 17.3 mph 75 % 0.00 in
10:10 38.4 °F 31.2 °F 29.75 in NW 11.5 mph 18.4 mph 75 % 0.00 in
10:11 38.4 °F 30.5 °F 29.74 in WSW 12.5 mph 25.3 mph 73 % 0.00 in
10:12 38.5 °F 30.6 °F 29.75 in NW 14.2 mph 23.0 mph 73 % 0.00 in
10:18 38.6 °F 30.7 °F 29.75 in WNW 5.1 mph 17.3 mph 73 % 0.00 in
10:20 38.6 °F 30.4 °F 29.75 in WSW 13.8 mph 20.7 mph 72 % 0.00 in
10:24 38.8 °F 30.5 °F 29.75 in WSW 9.3 mph 18.4 mph 72 % 0.00 in
10:29 38.9 °F 29.9 °F 29.76 in West 14.2 mph 25.3 mph 70 % 0.00 in
10:34 38.9 °F 29.6 °F 29.76 in WSW 15.2 mph 29.9 mph 69 % 0.00 in
10:36 38.8 °F 29.5 °F 29.76 in WSW 15.9 mph 20.7 mph 69 % 0.00 in
10:42 38.7 °F 28.7 °F 29.77 in WSW 16.8 mph 36.8 mph 67 % 0.00 in
10:43 38.6 °F 28.6 °F 29.77 in West 10.1 mph 21.9 mph 67 % 0.00 in
10:47 38.5 °F 28.9 °F 29.77 in WSW 13.1 mph 29.9 mph 68 % 0.00 in
10:50 38.5 °F 28.9 °F 29.77 in WSW 9.2 mph 19.6 mph 68 % 0.00 in
10:52 38.6 °F 28.9 °F 29.76 in WNW 14.4 mph 26.5 mph 68 % 0.00 in
10:55 38.6 °F 28.9 °F 29.77 in WSW 13.4 mph 21.9 mph 68 % 0.00 in
10:58 38.6 °F 28.9 °F 29.77 in West 11.0 mph 20.7 mph 68 % 0.00 in
11:03 38.3 °F 28.3 °F 29.78 in WNW 11.4 mph 29.9 mph 67 % 0.00 in
11:04 38.2 °F 27.8 °F 29.78 in WSW 8.8 mph 23.0 mph 66 % 0.00 in
11:09 37.8 °F 27.1 °F 29.78 in WSW 12.7 mph 19.6 mph 65 % 0.00 in
11:12 37.7 °F 27.0 °F 29.78 in WSW 13.2 mph 24.2 mph 65 % 0.00 in
11:17 37.3 °F 26.2 °F 29.78 in WSW 7.2 mph 19.6 mph 64 % 0.00 in
11:19 37.2 °F 25.8 °F 29.78 in West 6.0 mph 9.2 mph 63 % 0.00 in
11:25 37.0 °F 25.2 °F 29.79 in West 10.2 mph 17.3 mph 62 % 0.00 in
11:26 37.0 °F 25.6 °F 29.79 in WNW 8.1 mph 20.7 mph 63 % 0.00 in
11:28 37.0 °F 25.6 °F 29.79 in West 13.9 mph 26.5 mph 63 % 0.00 in
11:33 37.1 °F 24.9 °F 29.79 in NNW 13.2 mph 24.2 mph 61 % 0.00 in
11:36 37.2 °F 25.0 °F 29.79 in West 10.0 mph 24.0 mph 61 % 0.00 in
11:41 37.3 °F 24.3 °F 29.79 in SW 13.8 mph 32.2 mph 59 % 0.00 in
11:43 37.4 °F 24.8 °F 29.79 in SW 10.0 mph 24.2 mph 60 % 0.00 in
11:48 37.5 °F 25.3 °F 29.80 in West 9.5 mph 17.3 mph 61 % 0.00 in
11:50 37.5 °F 24.9 °F 29.79 in West 8.0 mph 19.6 mph 60 % 0.00 in
11:55 37.6 °F 25.0 °F 29.79 in NW 10.7 mph 18.4 mph 60 % 0.00 in
11:57 37.7 °F 25.1 °F 29.79 in WNW 8.8 mph 17.3 mph 60 % 0.00 in
12:03 37.8 °F 23.5 °F 29.79 in NW 13.1 mph 19.6 mph 56 % 0.00 in
12:04 37.8 °F 23.5 °F 29.79 in WSW 9.0 mph 14.0 mph 56 % 0.00 in
12:09 37.9 °F 24.8 °F 29.80 in WSW 7.8 mph 18.0 mph 59 % 0.00 in
12:14 38.2 °F 25.5 °F 29.80 in WNW 6.8 mph 13.0 mph 60 % 0.00 in
12:15 38.2 °F 25.9 °F 29.80 in West 8.2 mph 11.5 mph 61 % 0.00 in
12:17 38.3 °F 25.6 °F 29.80 in WSW 10.8 mph 26.5 mph 60 % 0.00 in
12:21 38.4 °F 25.3 °F 29.80 in West 10.0 mph 20.0 mph 59 % 0.00 in
12:26 38.2 °F 24.3 °F 29.81 in West 9.0 mph 20.0 mph 57 % 0.00 in
12:27 38.1 °F 24.2 °F 29.81 in West 11.0 mph 19.6 mph 57 % 0.00 in
12:32 38.0 °F 24.5 °F 29.81 in WNW 9.0 mph 13.0 mph 58 % 0.00 in
12:35 37.9 °F 24.8 °F 29.81 in WSW 13.9 mph 26.5 mph 59 % 0.00 in
12:40 37.7 °F 25.8 °F 29.81 in WNW 8.8 mph 16.1 mph 62 % 0.00 in
12:41 37.7 °F 25.8 °F 29.82 in West 9.0 mph 23.0 mph 62 % 0.00 in
12:46 37.5 °F 24.5 °F 29.82 in West 10.0 mph 23.0 mph 59 % 0.00 in
12:50 37.4 °F 23.5 °F 29.82 in West 10.8 mph 18.4 mph 57 % 0.00 in
12:54 37.4 °F 23.5 °F 29.82 in West 12.3 mph 21.9 mph 57 % 0.00 in
12:59 37.1 °F 22.4 °F 29.83 in West 9.2 mph 18.4 mph 55 % 0.00 in
13:01 37.0 °F 23.2 °F 29.83 in WNW 5.6 mph 11.5 mph 57 % 0.00 in
13:05 36.9 °F 22.7 °F 29.83 in SW 14.5 mph 26.5 mph 56 % 0.00 in
13:06 36.8 °F 22.6 °F 29.83 in West 11.3 mph 19.6 mph 56 % 0.00 in
13:10 36.7 °F 22.0 °F 29.83 in NW 11.9 mph 26.5 mph 55 % 0.00 in
13:12 36.6 °F 21.9 °F 29.83 in WSW 11.0 mph 19.6 mph 55 % 0.00 in
13:15 36.8 °F 22.6 °F 29.83 in WSW 12.9 mph 28.8 mph 56 % 0.00 in
13:20 36.8 °F 22.1 °F 29.83 in SW 11.6 mph 23.0 mph 55 % 0.00 in
13:26 36.7 °F 22.5 °F 29.84 in West 10.0 mph 20.0 mph 56 % 0.00 in
13:27 36.7 °F 22.5 °F 29.84 in WNW 7.8 mph 13.8 mph 56 % 0.00 in
13:32 36.6 °F 21.1 °F 29.85 in NW 11.0 mph 20.7 mph 53 % 0.00 in
13:36 36.7 °F 21.6 °F 29.84 in WSW 13.8 mph 24.2 mph 54 % 0.00 in
13:41 36.6 °F 20.6 °F 29.85 in WSW 12.0 mph 19.6 mph 52 % 0.00 in
13:44 36.5 °F 20.1 °F 29.85 in WSW 12.5 mph 26.5 mph 51 % 0.00 in
13:47 36.5 °F 20.1 °F 29.85 in SW 10.0 mph 18.4 mph 51 % 0.00 in
13:51 36.5 °F 21.0 °F 29.85 in WSW 4.8 mph 12.7 mph 53 % 0.00 in
13:53 36.5 °F 21.0 °F 29.85 in West 10.0 mph 18.4 mph 53 % 0.00 in
13:58 36.6 °F 21.1 °F 29.86 in West 11.5 mph 23.0 mph 53 % 0.00 in
14:00 36.6 °F 21.1 °F 29.86 in West 4.7 mph 13.8 mph 53 % 0.00 in
14:04 36.5 °F 20.5 °F 29.86 in WSW 9.1 mph 18.4 mph 52 % 0.00 in
14:06 36.4 °F 20.4 °F 29.87 in NW 12.7 mph 23.0 mph 52 % 0.00 in
14:11 36.3 °F 20.8 °F 29.87 in West 9.1 mph 15.0 mph 53 % 0.00 in
14:17 36.2 °F 21.1 °F 29.87 in WSW 11.7 mph 15.0 mph 54 % 0.00 in
14:19 36.2 °F 21.1 °F 29.87 in WSW 12.6 mph 21.9 mph 54 % 0.00 in
14:21 36.2 °F 20.7 °F 29.87 in WSW 13.4 mph 21.9 mph 53 % 0.00 in
14:25 36.1 °F 20.6 °F 29.88 in WSW 11.0 mph 13.0 mph 53 % 0.00 in
14:27 36.1 °F 21.0 °F 29.88 in WSW 4.9 mph 16.1 mph 54 % 0.00 in
14:32 36.1 °F 20.2 °F 29.88 in WNW 10.5 mph 12.7 mph 52 % 0.00 in
14:37 36.1 °F 19.7 °F 29.88 in WNW 11.1 mph 23.0 mph 51 % 0.00 in
14:40 36.1 °F 20.2 °F 29.89 in SW 9.0 mph 12.0 mph 52 % 0.00 in
14:45 36.1 °F 19.2 °F 29.89 in West 9.6 mph 19.6 mph 50 % 0.00 in
14:49 36.1 °F 19.2 °F 29.89 in WSW 10.5 mph 20.7 mph 50 % 0.00 in
14:54 36.1 °F 18.8 °F 29.90 in SW 14.1 mph 20.7 mph 49 % 0.00 in
14:58 35.9 °F 19.0 °F 29.90 in WNW 7.3 mph 16.0 mph 50 % 0.00 in
15:00 35.9 °F 19.5 °F 29.90 in SW 5.3 mph 16.1 mph 51 % 0.00 in
15:03 35.9 °F 19.5 °F 29.91 in SW 10.8 mph 17.3 mph 51 % 0.00 in
15:08 35.8 °F 18.5 °F 29.90 in West 7.0 mph 16.1 mph 49 % 0.00 in
15:09 35.8 °F 18.5 °F 29.90 in West 7.7 mph 16.1 mph 49 % 0.00 in
15:14 35.7 °F 18.9 °F 29.90 in WNW 5.1 mph 11.5 mph 50 % 0.00 in
15:19 35.6 °F 18.3 °F 29.91 in WNW 11.1 mph 17.0 mph 49 % 0.00 in
15:24 35.6 °F 18.3 °F 29.91 in WNW 8.9 mph 12.7 mph 49 % 0.00 in
15:25 35.6 °F 18.3 °F 29.91 in West 9.3 mph 12.7 mph 49 % 0.00 in
15:30 35.5 °F 18.2 °F 29.92 in West 9.0 mph 17.3 mph 49 % 0.00 in
15:35 35.5 °F 17.7 °F 29.92 in WNW 9.5 mph 18.4 mph 48 % 0.00 in
15:39 35.4 °F 18.1 °F 29.93 in WNW 7.0 mph 13.8 mph 49 % 0.00 in
15:43 35.4 °F 18.6 °F 29.93 in WNW 10.4 mph 16.1 mph 50 % 0.00 in
15:45 35.3 °F 18.0 °F 29.93 in West 11.3 mph 16.1 mph 49 % 0.00 in
15:50 35.3 °F 18.0 °F 29.94 in West 9.1 mph 19.6 mph 49 % 0.00 in
15:55 35.1 °F 17.4 °F 29.93 in WSW 5.9 mph 12.7 mph 48 % 0.00 in
16:00 35.1 °F 17.8 °F 29.94 in WSW 10.4 mph 19.6 mph 49 % 0.00 in
16:05 35.0 °F 17.3 °F 29.94 in SW 5.9 mph 15.0 mph 48 % 0.00 in
16:06 35.0 °F 17.3 °F 29.94 in West 6.0 mph 21.0 mph 48 % 0.00 in
16:11 34.9 °F 17.2 °F 29.95 in West 7.0 mph 16.0 mph 48 % 0.00 in
16:12 34.9 °F 17.2 °F 29.95 in WNW 6.9 mph 10.0 mph 48 % 0.00 in
16:17 34.8 °F 17.6 °F 29.95 in WSW 7.9 mph 11.5 mph 49 % 0.00 in
16:19 34.8 °F 17.1 °F 29.95 in WNW 4.9 mph 19.6 mph 48 % 0.00 in
16:24 34.8 °F 16.1 °F 29.96 in WSW 4.4 mph 10.4 mph 46 % 0.00 in
16:28 34.7 °F 17.5 °F 29.96 in SW 5.0 mph 13.8 mph 49 % 0.00 in
16:33 34.7 °F 18.9 °F 29.97 in SW 9.2 mph 13.8 mph 52 % 0.00 in
16:34 34.6 °F 18.8 °F 29.97 in WSW 5.5 mph 13.8 mph 52 % 0.00 in
16:39 34.6 °F 18.8 °F 29.97 in WSW 6.6 mph 11.5 mph 52 % 0.00 in
16:44 34.5 °F 19.1 °F 29.98 in West 9.0 mph 15.0 mph 53 % 0.00 in
16:49 34.4 °F 18.1 °F 29.98 in WSW 6.8 mph 13.8 mph 51 % 0.00 in
16:53 34.3 °F 18.9 °F 29.99 in WSW 5.0 mph 5.8 mph 53 % 0.00 in
16:54 34.3 °F 18.9 °F 29.99 in West 5.1 mph 11.5 mph 53 % 0.00 in
16:59 34.2 °F 18.8 °F 29.99 in West 5.5 mph 10.4 mph 53 % 0.00 in
17:00 34.3 °F 18.9 °F 29.99 in WSW 8.3 mph 16.0 mph 53 % 0.00 in
17:04 34.2 °F 17.5 °F 29.99 in WSW 9.7 mph 15.0 mph 50 % 0.00 in
17:07 34.3 °F 17.6 °F 29.99 in WSW 10.1 mph 16.0 mph 50 % 0.00 in
17:12 34.3 °F 15.6 °F 29.99 in WNW 4.2 mph 17.3 mph 46 % 0.00 in
17:16 34.3 °F 16.1 °F 29.99 in SW 5.5 mph 12.0 mph 47 % 0.00 in
17:18 34.3 °F 16.1 °F 30.00 in WSW 3.5 mph 11.5 mph 47 % 0.00 in
17:23 34.3 °F 16.6 °F 30.00 in West 6.8 mph 12.7 mph 48 % 0.00 in
17:26 34.2 °F 16.5 °F 30.00 in West 6.0 mph 13.0 mph 48 % 0.00 in
17:31 34.2 °F 17.0 °F 30.01 in West 9.3 mph 12.7 mph 49 % 0.00 in
17:33 34.2 °F 17.0 °F 30.01 in SW 5.5 mph 8.1 mph 49 % 0.00 in
17:38 34.2 °F 18.4 °F 30.01 in SW 3.3 mph 12.0 mph 52 % 0.00 in
17:42 34.2 °F 18.4 °F 30.02 in WSW 7.2 mph 17.3 mph 52 % 0.00 in
17:47 34.2 °F 18.8 °F 30.02 in WSW 5.7 mph 13.8 mph 53 % 0.00 in
17:52 34.1 °F 19.2 °F 30.03 in West 8.7 mph 20.0 mph 54 % 0.00 in
17:57 34.0 °F 18.6 °F 30.03 in SSW 10.5 mph 16.1 mph 53 % 0.00 in
18:02 33.9 °F 18.6 °F 30.04 in West 10.3 mph 13.8 mph 53 % 0.00 in
18:07 33.8 °F 18.0 °F 30.05 in WSW 9.2 mph 20.7 mph 52 % 0.00 in
18:08 33.8 °F 18.5 °F 30.05 in SW 10.1 mph 15.0 mph 53 % 0.00 in
18:13 33.7 °F 18.8 °F 30.05 in WSW 6.0 mph 10.0 mph 54 % 0.00 in
18:19 33.6 °F 18.7 °F 30.05 in SW 6.9 mph 13.8 mph 54 % 0.00 in
18:24 33.4 °F 18.1 °F 30.06 in WSW 12.4 mph 19.6 mph 53 % 0.00 in
18:25 33.4 °F 18.1 °F 30.06 in WSW 10.2 mph 19.6 mph 53 % 0.00 in
18:26 33.3 °F 18.0 °F 30.06 in WSW 7.4 mph 17.3 mph 53 % 0.00 in
18:31 33.2 °F 17.9 °F 30.06 in WSW 8.0 mph 27.0 mph 53 % 0.00 in
18:36 33.2 °F 17.9 °F 30.07 in WSW 3.0 mph 14.0 mph 53 % 0.00 in
18:38 33.1 °F 17.8 °F 30.08 in WSW 5.4 mph 12.0 mph 53 % 0.00 in
18:43 33.0 °F 17.3 °F 30.07 in SW 9.9 mph 13.8 mph 52 % 0.00 in
18:45 32.9 °F 17.6 °F 30.08 in SW 9.5 mph 12.7 mph 53 % 0.00 in
18:50 32.8 °F 17.5 °F 30.08 in SW 10.2 mph 18.4 mph 53 % 0.00 in
18:51 32.8 °F 17.5 °F 30.08 in SSW 10.2 mph 22.0 mph 53 % 0.00 in
18:54 32.8 °F 17.1 °F 30.08 in WNW 11.9 mph 24.0 mph 52 % 0.00 in
18:57 32.8 °F 17.5 °F 30.08 in WSW 11.5 mph 19.6 mph 53 % 0.00 in
19:02 32.7 °F 16.5 °F 30.09 in SW 10.6 mph 17.3 mph 51 % 0.00 in
19:07 32.6 °F 16.9 °F 30.09 in SW 6.5 mph 12.0 mph 52 % 0.00 in
19:10 32.6 °F 16.9 °F 30.09 in NW 7.1 mph 17.3 mph 52 % 0.00 in
19:11 32.6 °F 16.9 °F 30.09 in SW 3.9 mph 10.0 mph 52 % 0.00 in
19:16 32.5 °F 17.2 °F 30.09 in SW 7.0 mph 20.0 mph 53 % 0.00 in
19:21 32.4 °F 17.2 °F 30.09 in SW 7.0 mph 21.0 mph 53 % 0.00 in
19:22 32.4 °F 17.2 °F 30.09 in West 6.0 mph 11.5 mph 53 % 0.00 in
19:27 32.3 °F 17.1 °F 30.10 in SW 6.5 mph 15.0 mph 53 % 0.00 in
19:28 32.3 °F 17.1 °F 30.10 in WSW 7.4 mph 15.0 mph 53 % 0.00 in
19:33 32.3 °F 17.1 °F 30.10 in WSW 10.5 mph 19.6 mph 53 % 0.00 in
19:38 32.2 °F 17.0 °F 30.10 in West 7.3 mph 13.8 mph 53 % 0.00 in
19:43 32.1 °F 16.9 °F 30.11 in SSW 8.3 mph 13.8 mph 53 % 0.00 in
19:46 32.1 °F 16.9 °F 30.11 in WSW 8.2 mph 23.0 mph 53 % 0.00 in
19:51 32.0 °F 17.2 °F 30.11 in West 8.8 mph 16.1 mph 54 % 0.00 in
19:52 32.0 °F 17.2 °F 30.11 in SSW 8.7 mph 16.1 mph 54 % 0.00 in
19:57 31.9 °F 17.1 °F 30.11 in SW 9.5 mph 16.1 mph 54 % 0.00 in
19:59 31.9 °F 17.1 °F 30.11 in WNW 12.5 mph 16.0 mph 54 % 0.00 in
20:00 31.9 °F 17.1 °F 30.12 in WSW 9.6 mph 19.6 mph 54 % 0.00 in
20:05 31.8 °F 17.0 °F 30.12 in WSW 11.3 mph 19.6 mph 54 % 0.00 in
20:07 31.8 °F 17.0 °F 30.12 in West 7.7 mph 18.4 mph 54 % 0.00 in
20:09 31.8 °F 17.5 °F 30.12 in WSW 17.8 mph 26.5 mph 55 % 0.00 in
20:12 31.7 °F 16.9 °F 30.12 in WSW 8.5 mph 13.8 mph 54 % 0.00 in
20:18 31.6 °F 16.4 °F 30.13 in WSW 7.2 mph 17.3 mph 53 % 0.00 in
20:21 31.6 °F 17.3 °F 30.13 in West 10.7 mph 20.0 mph 55 % 0.00 in
20:26 31.5 °F 16.7 °F 30.13 in WSW 12.0 mph 23.0 mph 54 % 0.00 in
20:31 31.4 °F 17.1 °F 30.14 in WSW 12.0 mph 22.0 mph 55 % 0.00 in
20:34 31.4 °F 16.7 °F 30.14 in WSW 6.1 mph 19.6 mph 54 % 0.00 in
20:39 31.3 °F 16.6 °F 30.14 in SW 13.7 mph 20.0 mph 54 % 0.00 in
20:43 31.2 °F 16.0 °F 30.15 in West 7.0 mph 19.6 mph 53 % 0.00 in
20:48 31.1 °F 16.4 °F 30.15 in WSW 14.3 mph 20.7 mph 54 % 0.00 in
20:53 31.0 °F 16.7 °F 30.15 in WSW 6.0 mph 15.0 mph 55 % 0.00 in
20:55 31.0 °F 16.7 °F 30.15 in West 7.8 mph 13.8 mph 55 % 0.00 in
21:01 30.8 °F 15.7 °F 30.16 in SW 5.9 mph 11.5 mph 53 % 0.00 in
21:06 30.8 °F 16.1 °F 30.16 in SW 10.8 mph 18.0 mph 54 % 0.00 in
21:10 30.7 °F 16.4 °F 30.16 in SW 7.5 mph 16.1 mph 55 % 0.00 in
21:13 30.6 °F 16.3 °F 30.16 in West 8.8 mph 17.3 mph 55 % 0.00 in
21:18 30.5 °F 14.9 °F 30.16 in West 8.6 mph 15.0 mph 52 % 0.00 in
21:22 30.5 °F 15.4 °F 30.16 in WSW 8.3 mph 17.0 mph 53 % 0.00 in
21:26 30.4 °F 16.1 °F 30.16 in West 4.6 mph 11.5 mph 55 % 0.00 in
21:27 30.4 °F 16.1 °F 30.16 in SW 4.7 mph 10.4 mph 55 % 0.00 in
21:32 30.3 °F 16.0 °F 30.17 in WSW 6.2 mph 21.0 mph 55 % 0.00 in
21:34 30.3 °F 16.0 °F 30.17 in West 10.4 mph 20.7 mph 55 % 0.00 in
21:35 30.3 °F 16.0 °F 30.18 in WSW 10.3 mph 18.0 mph 55 % 0.00 in
21:40 30.2 °F 16.0 °F 30.17 in SW 8.3 mph 16.1 mph 55 % 0.00 in
21:42 30.2 °F 16.0 °F 30.17 in West 10.0 mph 16.1 mph 55 % 0.00 in
21:47 30.2 °F 16.0 °F 30.17 in West 10.6 mph 18.4 mph 55 % 0.00 in
21:51 30.1 °F 15.9 °F 30.17 in WNW 7.3 mph 15.0 mph 55 % 0.00 in
21:56 30.1 °F 15.4 °F 30.17 in SW 6.0 mph 18.4 mph 54 % 0.00 in
21:58 30.1 °F 15.4 °F 30.18 in West 12.0 mph 17.3 mph 54 % 0.00 in
22:03 30.0 °F 15.3 °F 30.18 in WNW 8.1 mph 16.1 mph 54 % 0.00 in
22:05 30.0 °F 15.3 °F 30.18 in West 10.5 mph 16.1 mph 54 % 0.00 in
22:06 30.0 °F 14.9 °F 30.18 in West 8.5 mph 12.7 mph 53 % 0.00 in
22:11 29.9 °F 14.8 °F 30.19 in West 5.8 mph 11.5 mph 53 % 0.00 in
22:16 29.9 °F 14.8 °F 30.19 in West 9.0 mph 11.5 mph 53 % 0.00 in
22:18 29.9 °F 14.8 °F 30.19 in West 11.3 mph 19.6 mph 53 % 0.00 in
22:23 29.8 °F 14.3 °F 30.19 in SW 9.4 mph 19.6 mph 52 % 0.00 in
22:24 29.8 °F 14.3 °F 30.19 in West 10.7 mph 16.1 mph 52 % 0.00 in
22:29 29.8 °F 13.9 °F 30.19 in West 14.0 mph 19.6 mph 51 % 0.00 in
22:30 29.8 °F 13.9 °F 30.19 in West 10.9 mph 19.6 mph 51 % 0.00 in
22:33 29.8 °F 14.3 °F 30.19 in WNW 11.4 mph 21.0 mph 52 % 0.00 in
22:36 29.7 °F 13.8 °F 30.19 in West 7.6 mph 19.6 mph 51 % 0.00 in
22:39 29.7 °F 14.2 °F 30.19 in West 9.5 mph 15.0 mph 52 % 0.00 in
22:44 29.7 °F 15.1 °F 30.19 in West 10.9 mph 23.0 mph 54 % 0.00 in
22:49 29.7 °F 14.2 °F 30.20 in WSW 6.4 mph 12.0 mph 52 % 0.00 in
22:54 29.6 °F 13.7 °F 30.20 in WNW 9.6 mph 12.7 mph 51 % 0.00 in
22:55 29.6 °F 13.7 °F 30.20 in West 8.5 mph 16.1 mph 51 % 0.00 in
23:00 29.6 °F 14.1 °F 30.19 in WNW 10.5 mph 17.3 mph 52 % 0.00 in
23:01 29.6 °F 14.1 °F 30.20 in WSW 6.0 mph 17.3 mph 52 % 0.00 in
23:06 29.6 °F 14.1 °F 30.20 in WSW 7.6 mph 16.1 mph 52 % 0.00 in
23:07 29.6 °F 14.1 °F 30.20 in West 7.7 mph 13.8 mph 52 % 0.00 in
23:11 29.6 °F 14.1 °F 30.20 in West 8.9 mph 19.6 mph 52 % 0.00 in
23:16 29.5 °F 14.0 °F 30.20 in WSW 7.6 mph 13.8 mph 52 % 0.00 in
23:21 29.5 °F 14.0 °F 30.20 in WNW 6.7 mph 12.7 mph 52 % 0.00 in
23:22 29.5 °F 14.0 °F 30.20 in WNW 5.2 mph 16.0 mph 52 % 0.00 in
23:29 29.4 °F 13.9 °F 30.20 in WSW 8.2 mph 19.6 mph 52 % 0.00 in
23:34 29.4 °F 13.9 °F 30.20 in WSW 11.1 mph 21.9 mph 52 % 0.00 in
23:35 29.4 °F 13.5 °F 30.20 in West 7.1 mph 16.1 mph 51 % 0.00 in
23:40 29.3 °F 13.4 °F 30.20 in WNW 8.5 mph 12.7 mph 51 % 0.00 in
23:41 29.3 °F 13.8 °F 30.20 in NW 7.8 mph 13.8 mph 52 % 0.00 in
23:46 29.2 °F 14.2 °F 30.20 in WNW 4.4 mph 13.0 mph 53 % 0.00 in
23:47 29.2 °F 14.2 °F 30.20 in WSW 7.2 mph 11.0 mph 53 % 0.00 in
23:52 29.2 °F 14.6 °F 30.20 in NW 7.6 mph 11.5 mph 54 % 0.00 in
23:58 29.1 °F 13.2 °F 30.20 in West 10.4 mph 17.3 mph 51 % 0.00 in
Crab Meadow Weather
Compliments of Weather Underground - 3.5 mb

Script developed by  Jim McMurry - jmcmurry@mwt.net Adapted for the template by  Wim van der Kuil - Leuven-Template.eu

Weather Terms: Tornado Watch - Conditions are favorable for the development of severe thunderstorms and tornadoes in and close to the watch area. These watches are issued for large areas by the Storm Prediction Center in Norman, Oklahoma, and are usually valid for four to six hours.